Total_Precipitation_Accumulation
0.00 0.00 0.01 0.02 0.01 0.00 0.00 0.00 0.00 0.00 0.00 0.00 0.00 0.00 0.00 0.00 0.00 0.00 0.00 0.00 0.00 0.00 0.00 0.00 0.01 0.01 0.01 0.01 0.00 0.00 0.00 0.00 0.00 0.00 0.00 0.00 0.00 0.00 0.00 0.00 0.00 0.00 0.00
0.00 0.00 0.00 0.01 0.01 0.00 0.00 0.00 0.00 0.00 0.00 0.00 0.00 0.00 0.00 0.00 0.00 0.00 0.00 0.00 0.00 0.00 0.00 0.00 0.00 0.00 0.01 0.04 0.06 0.06 0.02 0.00 0.00 0.00 0.00 0.00 0.00 0.00 0.00 0.00 0.00 0.00 0.00
0.00 0.00 0.00 0.00 0.00 0.00 0.00 0.00 0.00 0.00 0.00 0.00 0.00 0.00 0.00 0.00 0.00 0.00 0.00 0.00 0.00 0.00 0.00 0.00 0.00 0.00 0.00 0.00 0.02 0.08 0.15 0.11 0.02 0.00 0.00 0.00 0.00 0.00 0.00 0.00 0.00 0.00 0.00
0.00 0.00 0.00 0.00 0.00 0.00 0.00 0.00 0.00 0.00 0.00 0.00 0.00 0.00 0.00 0.00 0.00 0.00 0.00 0.00 0.00 0.00 0.00 0.00 0.00 0.00 0.00 0.00 0.01 0.06 0.17 0.23 0.12 0.05 0.02 0.00 0.00 0.00 0.00 0.00 0.00 0.00 0.00
0.01 0.01 0.00 0.00 0.00 0.00 0.00 0.00 0.00 0.00 0.00 0.01 0.01 0.00 0.01 0.01 0.00 0.00 0.00 0.02 0.01 0.00 0.00 0.00 0.00 0.00 0.00 0.00 0.00 0.01 0.07 0.16 0.16 0.16 0.14 0.07 0.01 0.00 0.00 0.00 0.00 0.00 0.00
0.12 0.08 0.02 0.01 0.01 0.01 0.00 0.01 0.02 0.03 0.01 0.02 0.02 0.01 0.02 0.01 0.00 0.00 0.01 0.01 0.01 0.01 0.00 0.00 0.00 0.00 0.00 0.00 0.00 0.00 0.01 0.07 0.16 0.21 0.21 0.25 0.20 0.05 0.01 0.00 0.00 0.00 0.00
0.19 0.22 0.17 0.10 0.02 0.01 0.01 0.04 0.07 0.13 0.15 0.19 0.16 0.02 0.01 0.00 0.00 0.00 0.00 0.00 0.00 0.00 0.00 0.00 0.00 0.00 0.00 0.00 0.00 0.00 0.02 0.04 0.10 0.20 0.23 0.24 0.28 0.22 0.19 0.12 0.02 0.01 0.00
0.15 0.18 0.20 0.21 0.17 0.08 0.07 0.15 0.17 0.18 0.12 0.19 0.20 0.07 0.01 0.00 0.00 0.00 0.00 0.00 0.00 0.00 0.00 0.00 0.00 0.00 0.00 0.00 0.00 0.00 0.01 0.03 0.07 0.20 0.31 0.27 0.30 0.40 0.50 0.55 0.31 0.05 0.01
0.15 0.21 0.34 0.26 0.14 0.15 0.13 0.20 0.21 0.25 0.20 0.15 0.13 0.12 0.03 0.00 0.00 0.00 0.00 0.00 0.00 0.00 0.00 0.01 0.01 0.00 0.00 0.00 0.00 0.00 0.01 0.02 0.02 0.06 0.21 0.45 0.58 0.57 0.43 0.32 0.19 0.13 0.05
0.24 0.23 0.31 0.35 0.27 0.15 0.14 0.15 0.20 0.19 0.16 0.12 0.12 0.08 0.09 0.05 0.05 0.02 0.01 0.01 0.01 0.00 0.01 0.01 0.01 0.00 0.00 0.00 0.01 0.02 0.03 0.04 0.06 0.10 0.14 0.30 0.66 0.72 0.53 0.38 0.37 0.33 0.24
0.36 0.31 0.28 0.24 0.26 0.21 0.25 0.25 0.20 0.17 0.18 0.18 0.15 0.15 0.14 0.12 0.07 0.07 0.07 0.05 0.04 0.03 0.02 0.01 0.01 0.01 0.01 0.02 0.03 0.05 0.08 0.07 0.09 0.13 0.17 0.20 0.35 0.63 0.88 0.84 0.67 0.60 0.56
0.20 0.20 0.20 0.19 0.26 0.31 0.31 0.31 0.34 0.30 0.27 0.23 0.18 0.18 0.19 0.19 0.15 0.12 0.15 0.12 0.11 0.10 0.08 0.07 0.05 0.04 0.03 0.05 0.11 0.17 0.22 0.23 0.30 0.37 0.41 0.42 0.44 0.53 0.63 0.63 0.67 0.75 0.86
0.09 0.10 0.16 0.18 0.19 0.24 0.27 0.32 0.31 0.31 0.32 0.29 0.24 0.21 0.24 0.27 0.26 0.27 0.23 0.20 0.15 0.11 0.08 0.07 0.06 0.06 0.06 0.07 0.11 0.21 0.26 0.29 0.31 0.37 0.47 0.57 0.64 0.59 0.59 0.81 1.24 1.27 1.23
0.11 0.15 0.15 0.17 0.19 0.21 0.21 0.23 0.25 0.25 0.25 0.26 0.28 0.26 0.25 0.24 0.28 0.32 0.33 0.30 0.25 0.14 0.12 0.14 0.13 0.13 0.14 0.16 0.22 0.29 0.30 0.37 0.45 0.56 0.67 0.76 0.82 0.79 0.72 0.81 0.83 0.64 0.57
0.12 0.15 0.15 0.15 0.18 0.20 0.22 0.24 0.24 0.22 0.22 0.24 0.23 0.21 0.15 0.14 0.17 0.19 0.21 0.24 0.38 0.44 0.34 0.29 0.29 0.29 0.28 0.34 0.42 0.46 0.50 0.64 0.78 0.88 0.89 0.92 0.78 0.79 0.70 0.65 0.65 0.42 0.39
0.10 0.10 0.10 0.12 0.15 0.18 0.19 0.20 0.22 0.19 0.22 0.22 0.24 0.27 0.28 0.26 0.23 0.22 0.24 0.29 0.37 0.57 0.74 0.68 0.65 0.64 0.63 0.63 0.66 0.64 0.71 0.80 0.75 0.74 0.77 0.61 0.53 0.46 0.39 0.38 0.37 0.35 0.34
0.07 0.07 0.08 0.09 0.09 0.09 0.10 0.13 0.17 0.27 0.36 0.42 0.46 0.47 0.48 0.45 0.48 0.54 0.63 0.75 0.88 0.99 1.09 1.00 0.90 0.84 0.80 0.78 0.74 0.61 0.50 0.40 0.38 0.44 0.38 0.34 0.27 0.21 0.19 0.17 0.16 0.16 0.17
0.05 0.05 0.05 0.04 0.04 0.06 0.09 0.10 0.11 0.13 0.17 0.23 0.29 0.36 0.40 0.41 0.42 0.42 0.47 0.56 0.72 0.90 1.05 1.03 0.94 0.85 0.73 0.59 0.44 0.31 0.26 0.25 0.23 0.27 0.22 0.14 0.12 0.12 0.12 0.13 0.13 0.12 0.11
0.06 0.05 0.04 0.03 0.02 0.02 0.03 0.05 0.08 0.12 0.17 0.25 0.29 0.31 0.34 0.36 0.39 0.39 0.43 0.49 0.58 0.65 0.66 0.55 0.44 0.38 0.35 0.33 0.34 0.31 0.26 0.19 0.14 0.14 0.10 0.08 0.08 0.08 0.08 0.07 0.06 0.06 0.06
0.05 0.04 0.05 0.05 0.06 0.06 0.07 0.09 0.08 0.08 0.07 0.07 0.08 0.11 0.17 0.26 0.37 0.51 0.69 0.77 0.68 0.52 0.41 0.32 0.27 0.21 0.17 0.12 0.09 0.08 0.07 0.04 0.02 0.01 0.00 0.00 0.00 0.00 0.00 0.00 0.00 0.00 0.00
0.04 0.04 0.08 0.14 0.16 0.16 0.19 0.18 0.17 0.17 0.18 0.21 0.23 0.27 0.32 0.40 0.45 0.42 0.34 0.28 0.24 0.21 0.18 0.20 0.17 0.11 0.06 0.03 0.03 0.02 0.02 0.01 0.00 0.00 0.00 0.00 0.00 0.00 0.00 0.00 0.00 0.00 0.00
0.10 0.10 0.13 0.14 0.17 0.21 0.37 0.31 0.25 0.26 0.28 0.29 0.31 0.33 0.36 0.40 0.34 0.30 0.22 0.14 0.11 0.17 0.16 0.11 0.07 0.03 0.00 0.00 0.00 0.01 0.03 0.05 0.05 0.00 0.00 0.00 0.00 0.00 0.00 0.00 0.00 0.00 0.00
0.15 0.24 0.25 0.20 0.16 0.15 0.29 0.24 0.22 0.20 0.23 0.25 0.25 0.22 0.19 0.17 0.13 0.10 0.09 0.07 0.12 0.09 0.05 0.02 0.01 0.00 0.00 0.01 0.06 0.08 0.07 0.08 0.03 0.00 0.01 0.00 0.00 0.00 0.00 0.00 0.00 0.00 0.00
0.29 0.25 0.27 0.37 0.45 0.54 0.51 0.36 0.28 0.20 0.19 0.17 0.15 0.13 0.09 0.04 0.02 0.02 0.04 0.09 0.04 0.01 0.00 0.00 0.00 0.00 0.02 0.03 0.07 0.13 0.05 0.02 0.01 0.00 0.00 0.01 0.00 0.00 0.00 0.00 0.00 0.00 0.00
0.68 0.77 0.64 0.55 0.66 0.74 0.61 0.47 0.30 0.22 0.18 0.13 0.07 0.02 0.00 0.00 0.01 0.02 0.04 0.02 0.00 0.00 0.00 0.00 0.01 0.01 0.01 0.01 0.00 0.01 0.02 0.04 0.03 0.00 0.00 0.00 0.00 0.00 0.00 0.00 0.00 0.00 0.00
0.68 0.66 0.70 0.57 0.52 0.48 0.35 0.27 0.19 0.12 0.06 0.01 0.00 0.00 0.00 0.01 0.01 0.04 0.03 0.01 0.00 0.00 0.03 0.02 0.00 0.00 0.00 0.00 0.00 0.00 0.01 0.12 0.09 0.11 0.00 0.10 0.04 0.03 0.15 0.01 0.00 0.00 0.00